Regional Weather Roundup
Issued by NWS Goodland, KS

Home | Current Version | Previous Version | Text Only | Print | Product List | Glossary On
Versions: 1 2 3 4 5 6 7 8 9 10 11 12 13 14 15 16 17 18 19 20 21 22 23 24 25 26 27 28 29 30 31 32 33 34 35 36 37 38 39 40 41 42 43 44 45 46 47 48 49 50
000
ASUS43 KGLD 020608
RWRGLD

GOODLAND FORECAST AREA HOURLY WEATHER ROUNDUP
NATIONAL WEATHER SERVICE GOODLAND KS
1200 AM MDT WED SEP 02 2015

...OFFICIAL OBSERVATIONS...

CITY           SKY/WX    TMP DP  RH WIND       PRES   REMARKS
GOODLAND KS    PTCLDY    72  57  59 S6        29.99S
HILL CITY KS   FAIR      80  58  46 S12       29.92F
IMPERIAL NEB   CLEAR     70  56  61 SW5       29.95S
MCCOOK NEB     CLEAR     72  57  59 SW3       29.91S
AKRON CO       CLEAR     67  48  50 SW10      30.05S
BURLINGTON CO  MOCLDY    67  58  72 SW7       30.04R
LIMON CO       PTCLDY    66  49  54 W7        30.12S
$$

...UNOFFICIAL OBSERVATIONS...

CITY           SKY/WX    TMP DP  RH WIND       PRES   REMARKS
COLBY KS       CLEAR     72  61  68 S6        29.97S
GOVE KS          N/A     78  32  18 MISG        N/A
LENORA KS        N/A     78  32  18 MISG        N/A
NORTON KS      CLEAR     75  54  46 S8        29.91
KIT CARSON CO    N/A     70  58  66 MISG        N/A
YUMA CO          N/A     67  58  72 SW5         N/A
$$



USA.gov is the U.S. government's official web portal to all federal, state and local government web resources and services.